Retour au catalogue

ATLAS 5 CENTAUR DEB

ActifHEO
NORAD 57598·DEBRIS·🇺🇸 United States

Lancé Oct 17, 2018 depuis Cape Canaveral Space Force Station

Loading…

Prochains Passages (prochaines 24 heures)

TLE

VieillissantSource: Space-Track

Époque: Aug 30, 2026, 21:25 UTC

1 57598U 18079HZ  26242.89257796 -.00000134  00000-0  00000-0 0  9997
2 57598  13.3655  29.0500 4623766 328.5183  10.5209  1.82933921 46745

Suivez ATLAS 5 CENTAUR DEB en temps réel avec AllMySat

Download on the App Store